Wind_Speed
39 36 34 31 29 28 28 28 28 28 27 27 26 26 25 23 23 24 23 24 25 26 27 28 28 27 28 30 31 32 34 35 37 38 38 37 37 37 37 35 39 40 41
42 39 35 34 32 31 31 31 30 30 30 30 29 28 26 21 24 26 25 25 26 27 29 29 30 31 32 33 33 35 36 37 38 39 41 40 40 37 36 38 42 42 41
42 41 39 38 36 34 34 34 33 32 33 32 31 31 28 24 26 30 27 27 27 28 30 32 33 35 36 37 37 37 38 39 39 40 40 40 41 39 36 41 42 40 39
45 45 42 41 39 37 37 36 35 35 35 35 34 33 30 28 27 34 28 29 28 31 32 34 36 37 39 40 39 41 40 41 41 41 42 43 43 38 40 39 42 44 43
47 46 44 43 41 39 39 38 38 38 38 36 35 31 35 32 37 35 34 33 31 34 34 36 39 40 41 42 43 42 43 43 43 42 42 41 41 42 37 40 43 44 44
50 49 47 45 43 43 41 41 41 41 41 38 37 34 37 43 42 38 35 34 37 38 41 42 42 42 45 44 43 43 44 45 45 42 40 39 36 38 42 44 46 45 44
57 54 51 49 47 47 45 44 44 42 41 40 42 37 40 42 38 41 39 39 40 43 44 41 41 43 44 44 43 42 42 42 38 38 36 37 38 42 46 48 46 45 42
60 57 55 53 52 50 50 48 44 42 40 47 51 39 43 44 43 42 48 45 40 37 37 38 38 35 32 34 36 38 37 38 37 36 36 40 42 43 47 47 47 44 41
58 60 59 56 55 52 52 51 50 52 47 53 49 47 48 46 45 39 45 44 42 40 41 40 39 36 38 41 41 38 37 36 36 39 41 42 45 48 51 49 48 47 45
48 51 55 59 59 56 55 45 51 42 42 43 39 46 48 43 38 43 38 40 38 39 40 44 45 44 47 47 44 38 36 37 41 43 45 48 49 49 51 49 49 49 48
50 53 45 43 47 39 28 34 36 36 38 39 41 38 40 38 40 37 42 46 49 47 48 47 44 43 43 44 35 34 35 40 42 45 47 47 48 47 49 51 50 47 48
34 28 36 33 34 38 42 45 29 33 39 34 38 36 38 42 42 44 46 42 38 42 28 22 26 28 30 31 36 38 41 43 46 47 50 49 50 50 48 47 49 51 50
40 31 37 37 40 44 44 41 46 44 42 37 37 40 39 38 40 43 43 35 25 16 17 21 25 29 30 33 37 42 46 47 48 50 51 48 48 47 48 51 52 49 46
32 34 40 46 47 40 43 50 50 26 32 38 40 52 39 38 39 38 30 22 17 16 18 23 30 33 36 39 40 43 45 45 45 45 45 43 45 47 50 51 49 44 41
16 19 12 13 18 27 28 29 18 23 22 21 33 28 23 31 31 15 12 16 19 23 26 28 33 38 41 42 44 46 46 43 40 38 42 42 45 49 49 47 45 42 39
19 22 19 17 21 23 24 25 24 26 27 29 28 23 24 21 18 17 21 24 27 28 30 33 38 41 43 41 42 40 35 33 37 39 42 45 48 49 47 45 43 40 37
20 21 22 24 28 31 32 35 33 33 31 31 33 34 29 27 28 28 30 32 32 32 35 38 38 39 41 42 39 34 34 36 40 41 45 48 49 46 44 44 42 38 36
25 29 31 32 34 34 34 36 36 37 38 39 39 42 42 35 36 37 39 38 36 38 39 40 40 41 41 41 38 37 37 38 38 41 44 45 43 43 44 41 38 36 34
28 31 33 37 39 40 40 41 42 42 44 46 47 47 48 42 46 45 42 44 45 44 43 42 42 43 41 39 39 38 38 39 39 41 42 41 41 42 40 37 34 34 31
31 33 35 36 38 41 42 43 43 44 45 46 48 49 49 49 51 52 50 49 47 47 44 40 40 42 42 39 40 41 41 39 38 39 38 37 40 39 38 35 34 29 28
40 41 43 44 46 47 48 49 50 50 51 51 50 49 50 51 53 52 51 51 48 47 44 42 41 42 43 42 40 41 39 38 37 36 37 37 38 37 37 33 30 26 25
48 51 55 57 58 56 55 56 56 56 56 56 57 55 53 53 53 54 52 52 49 47 44 42 43 43 43 42 38 38 37 38 36 36 36 38 37 36 34 30 27 26 25
46 47 49 47 48 52 57 59 59 59 60 59 59 59 58 56 55 53 52 51 48 47 46 44 44 42 41 39 39 37 37 37 36 36 36 38 38 34 31 28 26 26 24
52 54 58 60 59 57 56 56 56 58 60 60 58 58 59 59 58 55 53 51 48 48 47 46 43 41 41 40 39 37 35 35 36 37 37 38 37 32 30 27 25 23 21
59 63 66 69 67 68 63 58 58 57 56 57 58 58 58 58 58 56 54 52 50 48 46 46 44 42 42 41 39 37 35 37 36 36 36 35 34 30 29 27 23 21 20
62 65 69 70 74 72 71 63 60 62 60 60 57 56 57 59 57 54 53 52 50 50 47 47 46 44 40 41 38 37 35 37 35 35 33 31 30 29 28 26 22 20 18
Wind_Direction
237 236 240 243 246 249 251 253 256 259 260 261 262 262 261 262 267 268 269 271 274 276 279 280 281 283 286 289 292 294 296 300 303 305 306 306 310 311 314 314 315 317 320
229 238 239 241 243 245 249 253 256 259 261 262 261 262 263 265 272 270 270 271 274 277 280 282 282 283 284 286 289 291 293 298 300 302 305 308 307 309 311 313 311 312 318
235 237 237 239 242 244 247 249 253 257 259 260 260 261 259 259 268 272 271 274 276 278 281 282 283 284 285 286 288 291 294 295 296 298 301 303 305 306 307 309 310 313 314
231 236 237 239 241 244 248 253 256 258 259 261 260 260 257 258 257 272 271 274 279 280 280 281 281 283 284 285 286 289 291 293 295 299 300 303 305 303 308 309 311 310 313
230 234 237 239 242 245 248 252 255 258 258 259 259 266 261 260 266 269 267 271 276 279 278 279 280 282 285 286 287 289 292 293 295 299 301 300 300 306 309 311 312 310 311
231 233 236 240 242 246 248 251 254 256 259 257 254 262 261 263 274 265 268 271 272 275 278 281 278 279 282 282 285 288 292 293 295 299 298 300 305 307 309 308 308 307 307
234 235 237 240 242 245 248 251 255 257 258 257 256 264 263 263 269 263 271 271 272 276 278 282 283 282 281 284 289 292 295 296 296 298 301 303 307 309 306 306 305 304 302
234 234 238 240 242 245 247 249 252 255 255 254 256 259 259 262 270 274 268 269 272 280 279 279 282 284 287 290 295 295 292 290 292 295 301 306 306 306 305 304 304 301 300
232 234 235 238 240 243 245 245 248 251 255 255 258 254 260 266 264 270 268 262 265 273 279 278 282 275 280 288 287 292 291 288 292 302 303 305 304 302 302 300 300 299 299
222 229 234 237 238 244 246 249 255 250 256 262 259 261 263 262 272 268 265 267 265 272 274 282 284 282 283 286 286 285 284 290 294 299 302 300 299 298 297 300 301 299 301
233 233 235 239 245 243 247 239 249 254 252 254 260 258 269 268 267 267 267 267 267 273 279 283 279 279 282 286 291 287 295 291 298 299 297 297 296 296 300 301 301 301 300
238 257 249 248 239 256 252 257 264 264 251 255 257 265 263 261 267 269 278 273 273 268 272 295 292 287 280 293 294 296 293 295 296 296 297 300 300 299 299 301 301 302 301
249 268 258 262 264 264 266 255 262 280 278 271 262 267 274 266 262 267 264 260 256 261 279 288 295 293 296 297 296 297 295 296 296 297 295 297 299 299 302 302 303 304 302
244 256 261 261 266 259 262 264 277 257 273 252 261 274 282 271 258 247 245 238 249 284 289 297 296 297 292 290 290 291 292 292 292 294 294 295 296 299 302 303 304 302 302
221 223 248 243 242 259 259 249 242 256 271 258 245 252 234 239 242 259 298 290 273 276 284 288 291 290 289 292 291 292 293 291 290 290 293 295 298 302 305 306 303 303 300
241 234 257 256 245 249 272 255 259 257 265 271 271 262 277 294 295 281 271 273 277 277 281 286 288 291 293 291 291 290 284 285 288 293 296 300 301 303 306 302 301 299 295
258 259 265 269 271 275 279 285 285 286 283 277 276 278 271 268 266 267 266 268 273 279 280 284 284 289 289 289 286 283 285 288 291 293 298 301 303 306 304 303 304 300 300
265 265 268 266 267 268 270 270 270 272 271 271 271 273 274 261 267 269 265 268 271 275 280 282 282 284 286 282 280 283 285 289 295 298 300 302 306 304 302 305 303 299 302
263 264 266 268 268 267 268 268 267 264 264 266 268 265 266 261 261 262 262 265 270 272 273 279 281 284 281 278 279 282 286 291 297 300 299 302 304 305 303 304 301 302 299
271 272 271 272 270 271 270 268 265 263 262 262 262 262 262 260 259 262 261 262 266 269 272 276 277 275 272 274 279 284 285 290 295 295 298 303 302 304 301 301 300 303 298
265 266 266 264 263 263 262 261 262 262 261 260 258 257 258 258 258 258 260 262 264 265 266 270 271 269 269 271 275 279 283 288 291 293 297 301 299 300 300 303 301 301 303
280 278 279 280 280 276 272 271 270 268 265 263 260 257 256 257 258 259 261 261 262 263 263 264 265 265 266 269 273 277 281 285 286 290 293 293 295 296 299 301 299 300 298
286 286 286 283 281 279 276 275 275 274 272 270 269 267 264 260 258 259 256 259 260 260 261 261 261 263 265 268 269 271 275 281 284 288 290 290 291 292 295 297 296 295 289
281 281 283 284 285 284 281 279 273 269 269 269 267 266 264 262 260 258 258 258 258 259 260 262 263 262 262 265 267 268 271 277 282 284 286 288 288 289 291 292 293 291 287
286 283 282 282 282 283 281 273 269 266 266 266 263 262 260 259 259 257 257 257 258 259 262 264 264 263 263 266 267 267 272 275 278 283 285 285 287 285 287 286 285 285 285
289 286 282 280 281 282 279 273 266 261 261 263 261 260 260 259 257 257 258 258 259 261 261 261 262 262 262 263 263 267 271 273 277 279 282 286 285 281 281 279 280 279 278
Height
5836 5839 5842 5845 5848 5850 5851 5852 5853 5854 5855 5856 5856 5856 5856 5857 5858 5857 5857 5857 5857 5856 5855 5854 5854 5853 5851 5849 5847 5845 5842 5840 5837 5834 5832 5828 5825 5822 5820 5815 5812 5808 5802
5829 5832 5836 5838 5840 5842 5844 5846 5848 5849 5850 5851 5851 5851 5852 5852 5853 5853 5853 5852 5852 5851 5849 5849 5848 5846 5845 5842 5841 5838 5836 5834 5831 5828 5826 5823 5819 5814 5813 5811 5806 5802 5798
5821 5825 5828 5830 5832 5834 5836 5838 5840 5842 5843 5844 5845 5846 5847 5846 5848 5848 5848 5847 5847 5845 5845 5843 5842 5839 5838 5836 5833 5831 5830 5827 5824 5821 5818 5816 5814 5809 5805 5803 5798 5796 5791
5812 5816 5820 5823 5825 5827 5829 5832 5834 5835 5836 5837 5838 5839 5839 5841 5840 5842 5843 5842 5841 5839 5838 5837 5834 5832 5830 5828 5826 5824 5821 5820 5818 5815 5813 5809 5806 5802 5800 5797 5793 5788 5783
5803 5808 5812 5815 5817 5820 5822 5824 5827 5828 5829 5830 5832 5832 5832 5833 5834 5835 5835 5835 5835 5833 5830 5829 5827 5825 5823 5821 5820 5817 5814 5812 5810 5809 5805 5802 5797 5796 5792 5789 5785 5781 5777
5795 5799 5803 5808 5811 5813 5815 5816 5818 5820 5822 5822 5823 5823 5823 5825 5826 5825 5826 5826 5824 5823 5823 5822 5820 5817 5814 5812 5811 5810 5807 5804 5802 5800 5797 5795 5792 5787 5785 5780 5777 5774 5770
5788 5792 5795 5799 5802 5805 5807 5809 5810 5812 5814 5815 5814 5815 5815 5815 5817 5817 5817 5817 5816 5815 5813 5813 5812 5809 5806 5804 5803 5801 5799 5797 5795 5793 5790 5786 5783 5780 5776 5771 5767 5764 5761
5778 5783 5787 5791 5793 5796 5798 5799 5802 5803 5804 5804 5804 5805 5807 5807 5809 5808 5808 5807 5807 5807 5804 5803 5802 5800 5799 5798 5795 5793 5791 5789 5787 5783 5782 5778 5775 5771 5767 5762 5758 5754 5751
5767 5772 5777 5780 5783 5786 5788 5789 5789 5790 5790 5791 5793 5795 5797 5798 5798 5798 5796 5796 5797 5797 5794 5793 5793 5792 5790 5789 5786 5784 5782 5780 5778 5776 5772 5770 5766 5760 5756 5751 5746 5743 5742
5759 5762 5765 5768 5770 5773 5775 5779 5781 5781 5781 5783 5784 5784 5786 5787 5786 5786 5788 5786 5787 5787 5785 5785 5784 5783 5781 5779 5777 5775 5773 5772 5769 5765 5762 5758 5755 5750 5746 5739 5736 5731 5731
5755 5755 5757 5760 5764 5768 5770 5775 5776 5776 5775 5775 5776 5777 5777 5777 5776 5778 5778 5778 5777 5777 5777 5777 5776 5774 5770 5769 5768 5766 5764 5761 5757 5754 5751 5747 5742 5737 5734 5729 5726 5722 5719
5750 5751 5753 5755 5756 5762 5764 5766 5769 5768 5769 5768 5767 5767 5767 5767 5766 5767 5768 5768 5768 5768 5767 5767 5766 5765 5764 5762 5760 5757 5754 5750 5746 5742 5738 5735 5730 5727 5723 5720 5716 5711 5707
5743 5743 5744 5747 5751 5753 5755 5756 5759 5758 5758 5755 5756 5755 5757 5756 5757 5757 5758 5758 5760 5760 5761 5762 5760 5758 5755 5753 5749 5746 5743 5739 5736 5733 5730 5726 5723 5718 5712 5710 5706 5701 5697
5736 5738 5739 5739 5742 5743 5745 5746 5749 5746 5744 5743 5745 5744 5746 5744 5746 5747 5748 5748 5750 5750 5751 5752 5750 5748 5747 5744 5740 5736 5733 5729 5727 5723 5720 5717 5714 5709 5704 5700 5695 5689 5686
5728 5732 5732 5731 5733 5736 5735 5737 5736 5736 5737 5736 5737 5740 5739 5739 5738 5739 5740 5741 5743 5743 5743 5744 5741 5737 5734 5731 5729 5726 5724 5721 5718 5714 5712 5707 5702 5698 5692 5688 5684 5680 5677
5723 5725 5726 5727 5728 5729 5729 5731 5731 5730 5731 5732 5732 5731 5731 5732 5731 5731 5733 5735 5735 5734 5733 5733 5731 5728 5723 5720 5717 5716 5713 5710 5709 5705 5701 5696 5691 5686 5682 5677 5673 5669 5667
5720 5720 5721 5721 5721 5722 5722 5721 5722 5722 5722 5723 5723 5722 5723 5723 5724 5723 5724 5725 5724 5723 5722 5721 5719 5716 5713 5711 5708 5706 5704 5701 5699 5695 5691 5687 5682 5677 5672 5668 5661 5660 5656
5713 5714 5714 5714 5714 5712 5712 5712 5712 5712 5712 5712 5712 5714 5713 5714 5714 5714 5714 5713 5712 5711 5711 5709 5708 5705 5703 5700 5698 5695 5693 5690 5687 5684 5680 5676 5671 5669 5663 5658 5654 5650 5649
5705 5704 5704 5704 5702 5701 5700 5699 5699 5699 5700 5701 5701 5700 5700 5701 5701 5701 5701 5701 5701 5700 5697 5695 5694 5693 5691 5689 5687 5684 5682 5680 5677 5675 5671 5666 5661 5658 5655 5651 5647 5643 5640
5694 5694 5693 5691 5690 5689 5688 5687 5685 5685 5685 5685 5685 5685 5686 5686 5686 5687 5686 5686 5685 5684 5684 5682 5682 5680 5679 5678 5677 5675 5673 5670 5666 5664 5660 5656 5653 5652 5647 5641 5639 5635 5632
5684 5682 5681 5679 5678 5676 5674 5673 5672 5671 5670 5670 5669 5669 5669 5669 5668 5669 5670 5670 5669 5669 5666 5668 5669 5667 5666 5666 5665 5663 5662 5659 5657 5654 5652 5648 5646 5642 5640 5635 5629 5628 5626
5674 5672 5669 5666 5664 5662 5660 5659 5657 5656 5655 5654 5654 5652 5651 5652 5652 5652 5652 5652 5654 5654 5653 5654 5655 5654 5653 5653 5652 5653 5650 5648 5647 5643 5641 5640 5635 5633 5632 5628 5623 5621 5620
5659 5656 5653 5651 5648 5646 5642 5641 5638 5638 5639 5638 5638 5637 5637 5635 5636 5635 5636 5637 5637 5639 5640 5640 5640 5641 5641 5640 5641 5637 5638 5636 5635 5632 5633 5631 5629 5624 5620 5619 5617 5615 5613
5645 5642 5637 5633 5629 5624 5621 5620 5619 5618 5618 5619 5619 5619 5620 5619 5620 5620 5622 5623 5623 5623 5627 5628 5626 5627 5627 5628 5628 5627 5625 5624 5625 5621 5622 5622 5618 5615 5613 5611 5610 5609 5607
5630 5624 5618 5615 5609 5603 5600 5598 5597 5597 5598 5599 5600 5600 5600 5600 5602 5603 5606 5608 5609 5608 5611 5613 5613 5615 5615 5615 5616 5615 5613 5613 5614 5613 5611 5611 5609 5605 5604 5604 5603 5602 5601
5606 5601 5597 5591 5587 5583 5578 5575 5575 5575 5577 5578 5579 5580 5582 5584 5583 5585 5589 5591 5594 5595 5597 5599 5601 5603 5601 5603 5602 5603 5602 5603 5603 5604 5602 5600 5599 5597 5597 5596 5595 5595 5594